Saginaw, Michigan, United States (48601)
Lat: 43.42N, Lon: 83.95W
Wx Zone: MIZ053
Local Info
Past Weather Observations for Today

NOTE: This archive is for the closest National Weather Service station to Saginaw. Information may differ from the station used for current weather conditions.

Click here for Long-term Archive

Time Weather Temperature Dewpoint Humidity Pressure Winds Precip Visibility
15:55
Overcast
46°F / 8°C 43°F / 6°C 87% 30.04 in
(1017 mb)
NE 18.4 mph
(NE 30 kph)
- 10SM
15:35
Overcast
46°F / 8°C 43°F / 6°C 87% 30.04 in
(1017 mb)
NE 16.1 mph
(NE 26 kph)
- 10SM
15:14
Overcast
46°F / 8°C 43°F / 6°C 87% 30.04 in
(1017 mb)
NE 13.8 mph
(NE 22 kph)
- 10SM
14:55
Overcast
46°F / 8°C 43°F / 6°C 87% 30.04 in
(1017 mb)
NE 12.7 mph
(NE 20 kph)
- 10SM
14:35
Overcast
46°F / 8°C 43°F / 6°C 87% 30.04 in
(1017 mb)
NE 15 mph
(NE 24 kph)
- 10SM
14:14
Overcast
48°F / 9°C 45°F / 7°C 87% 30.04 in
(1017 mb)
NNE 13.8 mph
(NNE 22 kph)
- 10SM
13:55
Overcast
46°F / 8°C 45°F / 7°C 93% 30.04 in
(1017 mb)
NNE 13.8 mph
(NNE 22 kph)
- 10SM
13:35
Overcast
50°F / 10°C 45°F / 7°C 82% 30.04 in
(1017 mb)
NE 13.8 mph
(NE 22 kph)
- 10SM
13:15
Overcast
50°F / 10°C 45°F / 7°C 82% 30.04 in
(1017 mb)
NE 11.5 mph
(NE 19 kph)
- 10SM
12:55
Overcast
50°F / 10°C 45°F / 7°C 82% 30.01 in
(1016 mb)
NE 13.8 mph
(NE 22 kph)
- 10SM
12:35
Overcast
50°F / 10°C 45°F / 7°C 82% 30.04 in
(1017 mb)
NE 15 mph
(NE 24 kph)
- 10SM
12:15
Overcast
50°F / 10°C 45°F / 7°C 82% 30.04 in
(1017 mb)
NE 13.8 mph
(NE 22 kph)
- 10SM
11:55
Overcast
50°F / 10°C 45°F / 7°C 82% 30.04 in
(1017 mb)
NE 12.7 mph
(NE 20 kph)
- 10SM
11:35
Overcast
48°F / 9°C 45°F / 7°C 87% 30.04 in
(1017 mb)
NE 13.8 mph
(NE 22 kph)
- 10SM
11:15
Overcast
48°F / 9°C 45°F / 7°C 87% 30.04 in
(1017 mb)
NE 12.7 mph
(NE 20 kph)
- 10SM
10:55
Overcast
48°F / 9°C 45°F / 7°C 87% 30.04 in
(1017 mb)
NE 12.7 mph
(NE 20 kph)
- 10SM
10:35
Overcast
46°F / 8°C 45°F / 7°C 93% 30.04 in
(1017 mb)
NE 10.4 mph
(NE 17 kph)
- 10SM
10:15
Overcast
46°F / 8°C 45°F / 7°C 93% 30.04 in
(1017 mb)
NE 12.7 mph
(NE 20 kph)
- 10SM
09:55
Overcast
45°F / 7°C 43°F / 6°C 93% 30.04 in
(1017 mb)
NNE 9.2 mph
(NNE 15 kph)
- 7SM
09:35
Overcast
Fog And Mist
45°F / 7°C 43°F / 6°C 93% 30.04 in
(1017 mb)
NNE 11.5 mph
(NNE 19 kph)
- 5SM
09:15
Overcast
Fog And Mist
45°F / 7°C 43°F / 6°C 93% 30.01 in
(1016 mb)
NE 12.7 mph
(NE 20 kph)
- 3SM
08:55
Overcast
Fog And Mist
45°F / 7°C 43°F / 6°C 93% 30.01 in
(1016 mb)
NE 13.8 mph
(NE 22 kph)
- 3SM
08:35
Overcast
Fog And Mist
45°F / 7°C 43°F / 6°C 93% 30.01 in
(1016 mb)
NE 11.5 mph
(NE 19 kph)
- 3SM
08:15
Overcast
Fog And Mist
45°F / 7°C 43°F / 6°C 93% 30.01 in
(1016 mb)
NE 11.5 mph
(NE 19 kph)
- 3SM
07:55
Overcast
Fog And Mist
45°F / 7°C 43°F / 6°C 93% 30.01 in
(1016 mb)
NE 12.7 mph
(NE 20 kph)
- 2 1/2SM
07:34
Overcast
Fog And Mist
45°F / 7°C 43°F / 6°C 93% 30.01 in
(1016 mb)
NE 11.5 mph
(NE 19 kph)
- 1 3/4SM
07:15
Overcast
Light Rain
45°F / 7°C 43°F / 6°C 93% 30.01 in
(1016 mb)
NE 11.5 mph
(NE 19 kph)
- 2 1/2SM
06:55
Overcast
Light Rain
45°F / 7°C 43°F / 6°C 93% 30.01 in
(1016 mb)
NE 12.7 mph
(NE 20 kph)
- 2SM
06:34
Overcast
Drizzle
45°F / 7°C 43°F / 6°C 93% 29.98 in
(1015 mb)
NE 13.8 mph
(NE 22 kph)
- 2SM
06:15
Overcast
Light Rain
45°F / 7°C 43°F / 6°C 93% 30.01 in
(1016 mb)
NE 11.5 mph
(NE 19 kph)
- 2SM
05:55
Overcast
Fog And Mist
45°F / 7°C 43°F / 6°C 93% 29.98 in
(1015 mb)
NE 8.1 mph
(NE 13 kph)
- 2 1/2SM
05:34
Overcast
Drizzle
45°F / 7°C 43°F / 6°C 93% 29.98 in
(1015 mb)
NE 10.4 mph
(NE 17 kph)
- 4SM
05:15
Overcast
Drizzle
45°F / 7°C 43°F / 6°C 93% 29.98 in
(1015 mb)
NNE 10.4 mph
(NNE 17 kph)
- 3SM
04:55
Overcast
Fog And Mist
45°F / 7°C 43°F / 6°C 93% 29.98 in
(1015 mb)
NNE 8.1 mph
(NNE 13 kph)
- 5SM
04:34
Overcast
45°F / 7°C 43°F / 6°C 93% 29.98 in
(1015 mb)
NE 6.9 mph
(NE 11 kph)
- 10SM
04:15
Overcast
45°F / 7°C 43°F / 6°C 93% 29.98 in
(1015 mb)
NE 6.9 mph
(NE 11 kph)
- 10SM
03:54
Overcast
45°F / 7°C 43°F / 6°C 93% 29.95 in
(1014 mb)
NE 9.2 mph
(NE 15 kph)
- 10SM
03:35
Overcast
45°F / 7°C 43°F / 6°C 93% 29.95 in
(1014 mb)
NE 6.9 mph
(NE 11 kph)
- 7SM
03:15
Overcast
Fog And Mist
45°F / 7°C 43°F / 6°C 93% 29.98 in
(1015 mb)
NE 8.1 mph
(NE 13 kph)
- 5SM
02:54
Overcast
45°F / 7°C 43°F / 6°C 93% 29.98 in
(1015 mb)
NE 8.1 mph
(NE 13 kph)
- 7SM
02:35
Overcast
45°F / 7°C 43°F / 6°C 93% 30.01 in
(1016 mb)
ENE 3.5 mph
(ENE 6 kph)
- 7SM
02:15
Overcast
45°F / 7°C 43°F / 6°C 93% 30.01 in
(1016 mb)
NE 5.8 mph
(NE 9 kph)
- 7SM
01:54
Overcast
45°F / 7°C 43°F / 6°C 93% 30.01 in
(1016 mb)
ENE 8.1 mph
(ENE 13 kph)
- 7SM
01:35
Overcast
Light Rain
43°F / 6°C 41°F / 5°C 93% 29.98 in
(1015 mb)
NE 6.9 mph
(NE 11 kph)
- 7SM
01:15
Overcast
Light Rain
43°F / 6°C 41°F / 5°C 93% 29.98 in
(1015 mb)
ENE 13.8 mph
(ENE 22 kph)
- 7SM
00:54
Overcast
Light Rain
43°F / 6°C 41°F / 5°C 93% 30.01 in
(1016 mb)
NE 12.7 mph
(NE 20 kph)
- 10SM
00:35
Overcast
Light Rain
43°F / 6°C 41°F / 5°C 93% 30.01 in
(1016 mb)
NNE 10.4 mph
(NNE 17 kph)
- 10SM
00:15
Overcast
Unknown Precip
43°F / 6°C 41°F / 5°C 93% 30.04 in
(1017 mb)
N 8.1 mph
(N 13 kph)
- 7SM
Time Weather Temperature Dewpoint Humidity Pressure Winds Precip Visibility


Weather for websites

WeatherForYou.com, LLC is not responsible for any damages or problems caused by this service. Current weather conditions are obtained from the closest station including government and personal stations which may have varying degrees of accuracy. Weather forecasts are derived from the NOAA NDFD. Like all things, this site belongs to Jesus Christ... He just trusts us to maintain it. If you have any questions or comments email webmaster@weatherforyou.com

Copyright © 2016, WeatherForYou.com LLC. All rights reserved.